Location: Fours
(44.3167°N, 6.7000°E)
Time: 00:37:21
(UTC+00:00)

STARLINK-2232 - Visible Passes

Search period start: 15 August 2022 00:00
Search period end: 25 August 2022 00:00
Orbit: 546 x 548 km, 53.1° (Epoch: 14 August)

Date Brightness Start Highest point End Pass type
(mag) Time Alt. Az. Time Alt. Az. Time Alt. Az.
15 Aug ? 20:10:14 10° WSW 20:14:15 49° NNW 20:18:16 10° NE visible
15 Aug ? 21:51:03 10° WNW 21:54:29 24° N 21:57:04 14° NE visible
15 Aug ? 23:31:13 10° NW 23:32:38 18° NNW 23:32:38 18° NNW visible
16 Aug ? 20:04:06 10° W 20:08:01 41° NNW 20:11:57 10° NE visible
16 Aug ? 21:44:56 10° WNW 21:48:20 24° N 21:50:30 16° NE visible
16 Aug ? 23:24:54 10° NW 23:26:03 17° NW 23:26:03 17° NW visible
17 Aug ? 19:57:58 10° W 20:01:47 35° NNW 20:05:37 10° NE visible
17 Aug ? 21:38:46 10° NW 21:42:09 24° N 21:43:57 18° NE visible
17 Aug ? 23:18:35 10° NW 23:19:31 16° NW 23:19:31 16° NW visible
18 Aug ? 19:51:51 10° W 19:55:34 31° NNW 19:59:18 10° NE visible
18 Aug ? 21:32:34 10° NW 21:35:59 24° N 21:37:26 20° NE visible
18 Aug ? 23:12:14 10° NW 23:13:00 15° NW 23:13:00 15° NW visible
19 Aug ? 19:45:44 10° WNW 19:49:21 28° NNW 19:52:58 10° NE visible
19 Aug ? 21:26:19 10° NW 21:29:47 25° N 21:30:56 22° NE visible
19 Aug ? 23:05:52 10° NW 23:06:30 14° NW 23:06:30 14° NW visible
20 Aug ? 19:39:36 10° WNW 19:43:08 26° N 19:46:40 10° NE visible
20 Aug ? 21:20:02 10° NW 21:23:35 27° N 21:24:26 25° NNE visible
20 Aug ? 22:59:31 10° NW 23:00:01 13° NW 23:00:01 13° NW visible
21 Aug ? 19:33:27 10° WNW 19:36:55 25° N 19:40:22 10° NE visible
21 Aug ? 21:13:42 10° NW 21:17:20 29° NNE 21:17:58 28° NNE visible
21 Aug ? 22:53:08 10° NW 22:53:32 12° NW 22:53:32 12° NW visible
22 Aug ? 19:27:16 10° WNW 19:30:41 24° N 19:34:06 10° NE visible
22 Aug ? 21:07:21 10° NW 21:11:05 32° NNE 21:11:29 31° NNE visible
22 Aug ? 22:46:47 10° WNW 22:47:03 12° WNW 22:47:03 12° WNW visible
23 Aug ? 19:21:04 10° NW 19:24:27 24° N 19:27:50 10° NE visible
23 Aug ? 21:00:57 10° NW 21:04:48 36° NNE 21:05:01 36° NNE visible
23 Aug ? 22:40:26 10° WNW 22:40:36 11° WNW 22:40:36 11° WNW visible
24 Aug ? 19:14:48 10° NW 19:18:12 24° N 19:21:36 10° ENE visible
24 Aug ? 20:54:32 10° NW 20:58:30 42° NNE 20:58:35 42° NNE visible
24 Aug ? 22:34:06 10° WNW 22:34:09 10° WNW 22:34:09 10° WNW visible
